Time,TemperatureF,DewpointF,PressureIn,WindDirection,WindDirectionDegrees,WindSpeedMPH,WindSpeedGustMPH,Humidity,HourlyPrecipIn,Conditions,Clouds,dailyrainin,SolarRadiationWatts/m^2,SoftwareType,DateUTC
2013-03-11 00:03:00,34.0,29.0,-100.00,SSW,204,4.0,7.0,81,0.00,,,0.00,0.000000,,2013-03-11 04:03:00,
2013-03-11 00:12:00,34.0,29.0,-100.00,SSW,204,4.0,7.0,81,0.00,,,0.00,0.000000,,2013-03-11 04:12:00,
2013-03-11 00:22:00,34.0,29.0,-100.00,SSW,204,4.0,7.0,81,0.00,,,0.00,0.000000,,2013-03-11 04:22:00,
2013-03-11 00:33:00,34.0,29.0,-100.00,SSW,204,4.0,7.0,81,0.00,,,0.00,0.000000,,2013-03-11 04:33:00,
2013-03-11 01:04:00,35.0,29.0,-100.00,SW,218,6.0,12.0,80,0.00,,,0.00,0.000000,,2013-03-11 05:04:00,
2013-03-11 01:12:00,35.0,29.0,-100.00,SW,218,6.0,12.0,80,0.00,,,0.00,0.000000,,2013-03-11 05:12:00,
2013-03-11 01:22:00,35.0,29.0,-100.00,SW,218,6.0,12.0,80,0.00,,,0.00,0.000000,,2013-03-11 05:22:00,
2013-03-11 01:32:00,35.0,29.0,-100.00,SW,218,6.0,12.0,80,0.00,,,0.00,0.000000,,2013-03-11 05:32:00,
2013-03-11 02:02:00,36.0,31.0,-100.00,SW,224,6.0,14.0,82,0.00,,,0.00,0.000000,,2013-03-11 06:02:00,
2013-03-11 02:12:00,36.0,31.0,-100.00,SW,224,6.0,14.0,82,0.00,,,0.00,0.000000,,2013-03-11 06:12:00,
2013-03-11 02:22:00,36.0,31.0,-100.00,SW,224,6.0,14.0,82,0.00,,,0.00,0.000000,,2013-03-11 06:22:00,
2013-03-11 02:32:00,36.0,31.0,-100.00,SW,224,6.0,14.0,82,0.00,,,0.00,0.000000,,2013-03-11 06:32:00,
2013-03-11 02:53:00,36.0,31.0,-100.00,SW,224,6.0,15.0,81,0.00,,,0.00,0.000000,,2013-03-11 06:53:00,
2013-03-11 03:03:00,36.0,31.0,-100.00,SW,224,6.0,15.0,81,0.00,,,0.00,0.000000,,2013-03-11 07:03:00,
2013-03-11 03:12:00,36.0,31.0,-100.00,SW,224,6.0,15.0,81,0.00,,,0.00,0.000000,,2013-03-11 07:12:00,
2013-03-11 03:22:00,36.0,31.0,-100.00,SW,224,6.0,15.0,81,0.00,,,0.00,0.000000,,2013-03-11 07:22:00,
2013-03-11 03:32:00,36.0,31.0,-100.00,SW,224,6.0,15.0,81,0.00,,,0.00,0.000000,,2013-03-11 07:32:00,
2013-03-11 04:02:00,37.0,32.0,-100.00,SW,225,5.0,14.0,82,0.00,,,0.00,0.000000,,2013-03-11 08:02:00,
2013-03-11 04:12:00,37.0,32.0,-100.00,SW,225,5.0,14.0,82,0.00,,,0.00,0.000000,,2013-03-11 08:12:00,
2013-03-11 04:22:00,37.0,32.0,-100.00,SW,225,5.0,14.0,82,0.00,,,0.00,0.000000,,2013-03-11 08:22:00,
2013-03-11 04:32:00,37.0,32.0,-100.00,SW,225,5.0,14.0,82,0.00,,,0.00,0.000000,,2013-03-11 08:32:00,
2013-03-11 04:52:00,37.0,32.0,-100.00,SW,223,7.0,12.0,81,0.00,,,0.00,0.000000,,2013-03-11 08:52:00,
2013-03-11 05:02:00,37.0,32.0,-100.00,SW,223,7.0,12.0,81,0.00,,,0.00,0.000000,,2013-03-11 09:02:00,
2013-03-11 05:12:00,37.0,32.0,-100.00,SW,223,7.0,12.0,81,0.00,,,0.00,0.000000,,2013-03-11 09:12:00,
2013-03-11 05:23:00,37.0,32.0,-100.00,SW,223,7.0,12.0,81,0.00,,,0.00,0.000000,,2013-03-11 09:23:00,
2013-03-11 05:32:00,37.0,32.0,-100.00,SW,223,7.0,12.0,81,0.00,,,0.00,0.000000,,2013-03-11 09:32:00,
2013-03-11 06:02:00,38.0,33.0,-100.00,SW,221,6.0,14.0,82,0.00,,,0.00,0.000000,,2013-03-11 10:02:00,
2013-03-11 06:12:00,38.0,33.0,-100.00,SW,221,6.0,14.0,82,0.00,,,0.00,0.000000,,2013-03-11 10:12:00,
2013-03-11 06:22:00,38.0,33.0,-100.00,SW,221,6.0,14.0,82,0.00,,,0.00,0.000000,,2013-03-11 10:22:00,
2013-03-11 06:32:00,38.0,33.0,-100.00,SW,221,6.0,14.0,82,0.00,,,0.00,0.000000,,2013-03-11 10:32:00,
2013-03-11 07:03:00,38.0,33.0,-100.00,SW,223,7.0,15.0,82,0.00,,,0.00,0.000000,,2013-03-11 11:03:00,
2013-03-11 07:12:00,38.0,33.0,-100.00,SW,223,7.0,15.0,82,0.00,,,0.00,0.000000,,2013-03-11 11:12:00,
2013-03-11 07:23:00,38.0,33.0,-100.00,SW,223,7.0,15.0,82,0.00,,,0.00,0.000000,,2013-03-11 11:23:00,
2013-03-11 07:33:00,38.0,33.0,-100.00,SW,223,7.0,15.0,82,0.00,,,0.00,0.000000,,2013-03-11 11:33:00,
2013-03-11 08:02:00,38.0,33.0,-100.00,SW,222,5.0,13.0,82,0.00,,,-99.99,7.000000,,2013-03-11 12:02:00,
2013-03-11 08:12:00,38.0,33.0,-100.00,SW,222,5.0,13.0,82,0.00,,,-99.99,7.000000,,2013-03-11 12:12:00,
2013-03-11 08:22:00,38.0,33.0,-100.00,SW,222,5.0,13.0,82,0.00,,,-99.99,7.000000,,2013-03-11 12:22:00,
2013-03-11 08:33:00,38.0,33.0,-100.00,SW,222,5.0,13.0,82,0.00,,,-99.99,7.000000,,2013-03-11 12:33:00,
2013-03-11 09:03:00,39.0,34.0,-100.00,SW,228,7.0,13.0,82,0.00,,,-99.99,40.000000,,2013-03-11 13:03:00,
2013-03-11 09:12:00,39.0,34.0,-100.00,SW,228,7.0,13.0,82,0.00,,,-99.99,40.000000,,2013-03-11 13:12:00,
2013-03-11 09:22:00,39.0,34.0,-100.00,SW,228,7.0,13.0,82,0.00,,,-99.99,40.000000,,2013-03-11 13:22:00,
2013-03-11 09:32:00,39.0,34.0,-100.00,SW,228,7.0,13.0,82,0.00,,,-99.99,40.000000,,2013-03-11 13:32:00,
2013-03-11 10:02:00,40.0,35.0,-100.00,SW,226,5.0,12.0,81,0.00,,,0.00,85.000000,,2013-03-11 14:02:00,
2013-03-11 10:12:00,40.0,35.0,-100.00,SW,226,5.0,12.0,81,0.00,,,0.00,85.000000,,2013-03-11 14:12:00,
2013-03-11 10:22:00,40.0,35.0,-100.00,SW,226,5.0,12.0,81,0.00,,,0.00,85.000000,,2013-03-11 14:22:00,
2013-03-11 10:33:00,40.0,35.0,-100.00,SW,226,5.0,12.0,81,0.00,,,0.00,85.000000,,2013-03-11 14:33:00,
2013-03-11 11:03:00,41.0,35.0,-100.00,SW,221,6.0,13.0,78,0.00,,,0.00,168.000000,,2013-03-11 15:03:00,
2013-03-11 11:13:00,41.0,35.0,-100.00,SW,221,6.0,13.0,78,0.00,,,0.00,168.000000,,2013-03-11 15:13:00,
2013-03-11 11:23:00,41.0,35.0,-100.00,SW,221,6.0,13.0,78,0.00,,,0.00,168.000000,,2013-03-11 15:23:00,
2013-03-11 11:32:00,41.0,35.0,-100.00,SW,221,6.0,13.0,78,0.00,,,0.00,168.000000,,2013-03-11 15:32:00,
2013-03-11 12:03:00,42.0,35.0,-100.00,SW,228,8.0,13.0,76,0.00,,,0.00,278.000000,,2013-03-11 16:03:00,
2013-03-11 12:13:00,42.0,35.0,-100.00,SW,228,8.0,13.0,76,0.00,,,0.00,278.000000,,2013-03-11 16:13:00,
2013-03-11 12:22:00,42.0,35.0,-100.00,SW,228,8.0,13.0,76,0.00,,,0.00,278.000000,,2013-03-11 16:22:00,
2013-03-11 12:32:00,42.0,35.0,-100.00,SW,228,8.0,13.0,76,0.00,,,0.00,278.000000,,2013-03-11 16:32:00,
2013-03-11 12:53:00,42.0,35.0,-100.00,SW,220,8.0,16.0,75,0.00,,,-99.99,297.000000,,2013-03-11 16:53:00,
2013-03-11 13:03:00,42.0,35.0,-100.00,SW,220,8.0,16.0,75,0.00,,,-99.99,297.000000,,2013-03-11 17:03:00,
2013-03-11 13:17:00,42.0,35.0,-100.00,SW,220,8.0,16.0,75,0.00,,,-99.99,297.000000,,2013-03-11 17:17:00,
2013-03-11 13:28:00,42.0,35.0,-100.00,SW,220,8.0,16.0,75,0.00,,,-99.99,297.000000,,2013-03-11 17:28:00,
2013-03-11 13:37:00,42.0,35.0,-100.00,SW,220,8.0,16.0,75,0.00,,,-99.99,297.000000,,2013-03-11 17:37:00,
2013-03-11 14:02:00,43.0,35.0,-100.00,SW,227,8.0,17.0,74,0.00,,,0.00,375.000000,,2013-03-11 18:02:00,
2013-03-11 14:12:00,43.0,35.0,-100.00,SW,227,8.0,17.0,74,0.00,,,0.00,375.000000,,2013-03-11 18:12:00,
2013-03-11 14:23:00,43.0,35.0,-100.00,SW,227,8.0,17.0,74,0.00,,,0.00,375.000000,,2013-03-11 18:23:00,
2013-03-11 14:33:00,43.0,35.0,-100.00,SW,227,8.0,17.0,74,0.00,,,0.00,375.000000,,2013-03-11 18:33:00,
2013-03-11 15:02:00,42.0,35.0,-100.00,SW,228,9.0,17.0,75,0.00,,,0.00,338.000000,,2013-03-11 19:02:00,
2013-03-11 15:13:00,42.0,35.0,-100.00,SW,228,9.0,17.0,75,0.00,,,0.00,338.000000,,2013-03-11 19:13:00,
2013-03-11 15:23:00,42.0,35.0,-100.00,SW,228,9.0,17.0,75,0.00,,,0.00,338.000000,,2013-03-11 19:23:00,
2013-03-11 15:33:00,42.0,35.0,-100.00,SW,228,9.0,17.0,75,0.00,,,0.00,338.000000,,2013-03-11 19:33:00,
2013-03-11 16:02:00,42.0,35.0,-100.00,SW,222,9.0,18.0,77,0.00,,,0.00,268.000000,,2013-03-11 20:02:00,
2013-03-11 16:12:00,42.0,35.0,-100.00,SW,222,9.0,18.0,77,0.00,,,0.00,268.000000,,2013-03-11 20:12:00,
2013-03-11 16:22:00,42.0,35.0,-100.00,SW,222,9.0,18.0,77,0.00,,,0.00,268.000000,,2013-03-11 20:22:00,
2013-03-11 16:32:00,42.0,35.0,-100.00,SW,222,9.0,18.0,77,0.00,,,0.00,268.000000,,2013-03-11 20:32:00,
2013-03-11 17:03:00,41.0,36.0,-100.00,SW,225,8.0,16.0,81,0.00,,,0.00,140.000000,,2013-03-11 21:03:00,
2013-03-11 17:13:00,41.0,36.0,-100.00,SW,225,8.0,16.0,81,0.00,,,0.00,140.000000,,2013-03-11 21:13:00,
2013-03-11 17:23:00,41.0,36.0,-100.00,SW,225,8.0,16.0,81,0.00,,,0.00,140.000000,,2013-03-11 21:23:00,
2013-03-11 17:33:00,41.0,36.0,-100.00,SW,225,8.0,16.0,81,0.00,,,0.00,140.000000,,2013-03-11 21:33:00,
2013-03-11 17:54:00,40.0,36.0,-100.00,SW,221,8.0,14.0,84,0.00,,,0.00,54.000000,,2013-03-11 21:54:00,
2013-03-11 18:03:00,40.0,36.0,-100.00,SW,221,8.0,14.0,84,0.00,,,0.00,54.000000,,2013-03-11 22:03:00,
2013-03-11 18:13:00,40.0,36.0,-100.00,SW,221,8.0,14.0,84,0.00,,,0.00,54.000000,,2013-03-11 22:13:00,
2013-03-11 18:23:00,40.0,36.0,-100.00,SW,221,8.0,14.0,84,0.00,,,0.00,54.000000,,2013-03-11 22:23:00,
2013-03-11 18:32:00,40.0,36.0,-100.00,SW,221,8.0,14.0,84,0.00,,,0.00,54.000000,,2013-03-11 22:32:00,
2013-03-11 19:03:00,39.0,35.0,-100.00,SW,221,7.0,15.0,86,0.00,,,0.00,18.000000,,2013-03-11 23:03:00,
2013-03-11 19:12:00,39.0,35.0,-100.00,SW,221,7.0,15.0,86,0.00,,,0.00,18.000000,,2013-03-11 23:12:00,
2013-03-11 19:22:00,39.0,35.0,-100.00,SW,221,7.0,15.0,86,0.00,,,0.00,18.000000,,2013-03-11 23:22:00,
2013-03-11 19:32:00,39.0,35.0,-100.00,SW,221,7.0,15.0,86,0.00,,,0.00,18.000000,,2013-03-11 23:32:00,
2013-03-11 20:02:00,40.0,37.0,-100.00,SSW,212,7.0,13.0,89,0.00,,,0.00,0.000000,,2013-03-12 00:02:00,
2013-03-11 20:13:00,40.0,37.0,-100.00,SSW,212,7.0,13.0,89,0.00,,,0.00,0.000000,,2013-03-12 00:13:00,
2013-03-11 20:23:00,40.0,37.0,-100.00,SSW,212,7.0,13.0,89,0.00,,,0.00,0.000000,,2013-03-12 00:23:00,
2013-03-11 20:33:00,40.0,37.0,-100.00,SSW,212,7.0,13.0,89,0.00,,,0.00,0.000000,,2013-03-12 00:33:00,
2013-03-11 21:02:00,40.0,38.0,-100.00,SW,214,7.0,16.0,91,0.00,,,0.00,0.000000,,2013-03-12 01:02:00,
2013-03-11 21:12:00,40.0,38.0,-100.00,SW,214,7.0,16.0,91,0.00,,,0.00,0.000000,,2013-03-12 01:12:00,
2013-03-11 21:22:00,40.0,38.0,-100.00,SW,214,7.0,16.0,91,0.00,,,0.00,0.000000,,2013-03-12 01:22:00,
2013-03-11 21:33:00,40.0,38.0,-100.00,SW,214,7.0,16.0,91,0.00,,,0.00,0.000000,,2013-03-12 01:33:00,
2013-03-11 22:02:00,40.0,38.0,-100.00,SSW,210,7.0,18.0,91,0.00,,,0.00,0.000000,,2013-03-12 02:02:00,
2013-03-11 22:13:00,40.0,38.0,-100.00,SSW,210,7.0,18.0,91,0.00,,,0.00,0.000000,,2013-03-12 02:13:00,
2013-03-11 22:22:00,40.0,38.0,-100.00,SSW,210,7.0,18.0,91,0.00,,,0.00,0.000000,,2013-03-12 02:22:00,
2013-03-11 22:32:00,40.0,38.0,-100.00,SSW,210,7.0,18.0,91,0.00,,,0.00,0.000000,,2013-03-12 02:32:00,
2013-03-11 23:02:00,41.0,39.0,-100.00,SSW,204,7.0,16.0,92,0.00,,,0.00,0.000000,,2013-03-12 03:02:00,
2013-03-11 23:12:00,41.0,39.0,-100.00,SSW,204,7.0,16.0,92,0.00,,,0.00,0.000000,,2013-03-12 03:12:00,
2013-03-11 23:22:00,41.0,39.0,-100.00,SSW,204,7.0,16.0,92,0.00,,,0.00,0.000000,,2013-03-12 03:22:00,
2013-03-11 23:32:00,41.0,39.0,-100.00,SSW,204,7.0,16.0,92,0.00,,,0.00,0.000000,,2013-03-12 03:32:00,